TIANYAN 01

Last updated on Fri Dec 19 2025 00:03:11 GMT+0000 (Coordinated Universal Time)

1 44881U 19093C 25352.49098541 .00000979 00000+0 11771-3 0 9998 2 44881 97.7759 63.9941 0012949 326.5807 33.4590 14.86115706324573
UTC large
Height (km)
Speed (km/s)
/
Latitude / Longitude
Inclination (degrees)
Orbital Period (minutes)
Azimuth
Elevation
Range (km)
Doppler Factor

Next 0 passes for location: London (51.5072 / 0.1276)

Sorry there are no passes over London.